Home > Weather > Langesund > Past weeks

Flag for Norway Past Weather in Langesund, Norway — Yesterday and Last 2 Weeks

Now
65 °F

Mild.


Feels Like: 65 °F
Forecast: 52 / 72 °F
Wind: 2 mph from Southwest

Location: Jomfruland Fyr

Current Time: Jul 29, 2016 at 2:17:39 PM

Latest Report: Jul 29, 2016 at 12:00 PM


Visibility: N/A

Pressure: 29.81 "Hg

Humidity: 74%

Dew Point: 56 °F

Location of LangesundLocation

Past Weather in Langesund — Graph

°F

Langesund Temperature Yesterday

Maximum temperature yesterday: 65 °F (at 1:00 PM)
Minimum temperature yesterday: 58 °F (at 6:00 AM)
Average temperature yesterday: 62 °F

High & Low Weather Summary for the Past Weeks

 TemperatureHumidityPressure
High73 °F (Jul 24, 3:00 PM)95% (Jul 19, 4:00 AM)30.15 "Hg (Jul 19, 4:00 AM)
Low54 °F (Jul 17, 6:00 AM)38% (Jul 16, 7:00 PM)29.74 "Hg (Jul 28, 2:00 AM)
Average64 °F80%29.97 "Hg
* Reported Jul 14 12:00 PM — Jul 29 12:00 PM, Langesund, Weather by CustomWeather, © 2016

Note: Actual official high and low records may vary slightly from our data, if they occured in-between our weather recording intervals... More about our weather records

Advertising

Langesund Weather History for the Previous 24 Hours

Scroll right to see more
 ConditionsComfort  
Time TempWeatherWind HumidityBarometerVisibility
12:00 PM
Fri, Jul 29
65 °FMild.2 mph74%29.81 "HgN/A
11:00 AM64 °FMild.3 mph71%29.82 "HgN/A
10:00 AM62 °FCool.3 mph77%29.82 "HgN/A
9:00 AM61 °FCool.5 mph80%29.82 "HgN/A
8:00 AM60 °FCool.3 mph81%29.82 "HgN/A
7:00 AM60 °FCool.5 mph78%29.82 "HgN/A
6:00 AM59 °FCool.3 mph80%29.82 "HgN/A
5:00 AM59 °FCool.5 mph79%29.82 "HgN/A
4:00 AM60 °FCool.5 mph79%29.82 "HgN/A
2:00 AM61 °FCool.6 mph81%29.83 "HgN/A
11:00 PM
Thu, Jul 28
62 °FCool.8 mph86%29.83 "HgN/A
10:00 PM63 °FMild.9 mph86%29.83 "HgN/A
8:00 PM63 °FMild.13 mph83%29.82 "HgN/A
5:00 PM64 °FMild.14 mph81%29.83 "HgN/A
3:00 PM64 °FMild.13 mph80%29.83 "HgN/A
2:00 PM65 °FMild.12 mph78%29.83 "HgN/A
Weather by CustomWeather, © 2016

See weather overviewHow to use our weather pages